Location: Arbon
(43.0005°N, 0.7472°E)
Time: 02:27:37
(UTC+00:00)

USA 267 - Pass Details

Date: 07 August 2020
Orbit: 1102 x 1106 km, 123.0° (Epoch: 18 September)

Event Time Altitude Azimuth Distance (km) Brightness Sun altitude
Rises 02:12:54 0° 107° (ESE) 3,913 6.4 -23.6°
Reaches altitude 10° 02:15:27 10° 102° (ESE) 2,957 5.8 -23.3°
Maximum altitude 02:21:41 50° 29° (NNE) 1,373 4.1 -22.7°
Drops below altitude 10° 02:27:57 10° 317° (NW) 2,967 5.6 -22.0°
Sets 02:30:30 0° 312° (NW) 3,927 6.2 -21.7°
